Estación de Contra Coronel

Ultimos registro cada 15 minutos 75
Estación Fecha / Hora Temperatura Humedad Lluvia Velocidad Dirección Radiación Presion
75 Contra Coronel 05-05-2026 18:30 14,2 97,5 0 2 7 0,6 1001,4
74 Contra Coronel 05-05-2026 18:15 14,2 97,6 0 2 15 0,6 1001,4
73 Contra Coronel 05-05-2026 18:00 14,4 97,2 0 2 7 0,6 1001,4
72 Contra Coronel 05-05-2026 17:45 14,5 96,7 0 2,3 6 0,6 1001,6
71 Contra Coronel 05-05-2026 17:30 14,4 97,1 0 1,7 7 0,6 1001,3
70 Contra Coronel 05-05-2026 17:15 14,4 96,9 0 1,7 7 3,1 1001,3
69 Contra Coronel 05-05-2026 17:00 14,4 96,6 0 1,7 13 14,4 1001,2
68 Contra Coronel 05-05-2026 16:45 14,3 96,9 0,2 2,3 4 16,9 1001,1
67 Contra Coronel 05-05-2026 16:30 14,1 97,8 0 2,3 8 19,4 1001
66 Contra Coronel 05-05-2026 16:15 13,9 97,6 0,2 2,7 17 19,4 1001
65 Contra Coronel 05-05-2026 16:00 14,2 96,7 0 2,7 13 33,1 1000,8
64 Contra Coronel 05-05-2026 15:45 13,8 97,9 0 2,3 21 45,6 1000,8
63 Contra Coronel 05-05-2026 15:30 13,7 98,5 0 2,3 3 44,4 1001
62 Contra Coronel 05-05-2026 15:15 13,6 99 0 2,7 25 144,4 1000,7
61 Contra Coronel 05-05-2026 15:00 13,2 99,3 0 2,3 25 76,9 1001,1
60 Contra Coronel 05-05-2026 14:45 13,1 99,3 0 2 25 63,1 1001,3
59 Contra Coronel 05-05-2026 14:30 13,1 98,9 0,2 1,3 29 44,4 1001,7
58 Contra Coronel 05-05-2026 14:15 12,9 98,8 0,2 1 31 41,9 1002
57 Contra Coronel 05-05-2026 14:00 12,8 98,8 0 1 46 26,9 1002,1
56 Contra Coronel 05-05-2026 13:45 12,8 98,9 0 1 53 75,6 1002
55 Contra Coronel 05-05-2026 13:30 12,7 99 0,2 1,3 59 91,9 1002,1
54 Contra Coronel 05-05-2026 13:15 12,5 98,9 0,4 1,3 41 48,1 1002,4
53 Contra Coronel 05-05-2026 13:00 12,5 99,1 0,2 1 79 60,6 1002,7
52 Contra Coronel 05-05-2026 12:45 12,5 99,2 0 1 73 68,1 1002,9
51 Contra Coronel 05-05-2026 12:30 12,3 99,2 0,4 0,3 81 59,4 1003,2
50 Contra Coronel 05-05-2026 12:15 12,3 99,3 0,8 0 118 36,9 1003,8
49 Contra Coronel 05-05-2026 12:00 12,2 99,3 0,4 0,3 114 21,9 1003,6
48 Contra Coronel 05-05-2026 11:45 12,1 99,4 0,6 0,3 147 14,4 1003,8
47 Contra Coronel 05-05-2026 11:30 12,1 99,5 0,2 0,3 101 10,6 1003,9
46 Contra Coronel 05-05-2026 11:15 12 99,5 0 1 76 18,1 1003,3
45 Contra Coronel 05-05-2026 11:00 12 99,3 0 1 45 29,4 1003,8
44 Contra Coronel 05-05-2026 10:45 12 99,1 0,4 1,3 44 34,4 1003,9
43 Contra Coronel 05-05-2026 10:30 12 99 0,4 1 39 23,1 1004,3
42 Contra Coronel 05-05-2026 10:15 12 98,5 0,6 1 31 6,9 1004,5
41 Contra Coronel 05-05-2026 10:00 12,1 97,9 0,4 1,3 7 11,9 1004,7
40 Contra Coronel 05-05-2026 09:45 12,2 97,4 0,2 1,3 4 5,6 1004,6
39 Contra Coronel 05-05-2026 09:30 12,3 96,8 0,2 2 24 28,1 1004,2
38 Contra Coronel 05-05-2026 09:15 12,3 96,6 0 2 29 15,6 1004,4
37 Contra Coronel 05-05-2026 09:00 12,1 97,5 0 1,7 28 23,1 1004,7
36 Contra Coronel 05-05-2026 08:45 11,9 97,9 0 1,3 32 15,6 1004,9
35 Contra Coronel 05-05-2026 08:30 11,8 98,1 0 1,7 27 23,1 1005,1
34 Contra Coronel 05-05-2026 08:15 11,8 97,9 0,2 1 39 8,1 1005,1
33 Contra Coronel 05-05-2026 08:00 11,8 97,7 0,2 1 22 0,6 1005,3
32 Contra Coronel 05-05-2026 07:45 11,8 97,4 0,2 1,3 34 0,6 1005,4
31 Contra Coronel 05-05-2026 07:30 11,8 97,5 0 0,7 35 0,6 1005,4
30 Contra Coronel 05-05-2026 07:15 11,9 97,5 0 1 34 0,6 1005,2
29 Contra Coronel 05-05-2026 07:00 11,8 97,7 0 1 34 0,6 1005,4
28 Contra Coronel 05-05-2026 06:45 11,8 97,9 0 1 29 0,6 1005,4
27 Contra Coronel 05-05-2026 06:30 11,8 98,1 0 1,3 35 0,6 1005,3
26 Contra Coronel 05-05-2026 06:15 11,8 98,4 0 1,7 34 0,6 1005,5
25 Contra Coronel 05-05-2026 06:00 11,8 98,7 0 1,7 35 0,6 1005,7
24 Contra Coronel 05-05-2026 05:45 11,8 98,9 0 1,3 39 0,6 1005,7
23 Contra Coronel 05-05-2026 05:30 11,8 99 0 1,7 31 0,6 1005,7
22 Contra Coronel 05-05-2026 05:15 11,8 99 0 1,3 35 0,6 1005,8
21 Contra Coronel 05-05-2026 05:00 11,8 99,1 0 1,3 25 0,6 1005,8
20 Contra Coronel 05-05-2026 04:45 11,7 99,3 0 1,3 25 0,6 1005,8
19 Contra Coronel 05-05-2026 04:30 11,7 99,4 0 1,3 15 0,6 1005,8
18 Contra Coronel 05-05-2026 04:15 11,6 99,6 0 1 27 0,6 1005,8
17 Contra Coronel 05-05-2026 04:00 11,6 99,5 0,2 1 34 0,6 1006
16 Contra Coronel 05-05-2026 03:45 11,5 99,6 0 0,7 39 0,6 1006,1
15 Contra Coronel 05-05-2026 03:30 11,4 99,6 0 1 48 0,6 1006,3
14 Contra Coronel 05-05-2026 03:15 11,4 99,5 0,2 0 42 0,6 1006,4
13 Contra Coronel 05-05-2026 03:00 11,4 99,4 0,2 0 45 0,6 1006,8
12 Contra Coronel 05-05-2026 02:45 11,3 99,4 0 0 48 0,6 1006,8
11 Contra Coronel 05-05-2026 02:30 11,3 99,4 0,2 0,3 48 0,6 1006,8
10 Contra Coronel 05-05-2026 02:15 11,3 99,3 0 0 59 0,6 1006,9
9 Contra Coronel 05-05-2026 02:00 11,2 99,3 0 0 70 0,6 1006,6
8 Contra Coronel 05-05-2026 01:45 11,3 99,3 0 0,3 79 0,6 1006,7
7 Contra Coronel 05-05-2026 01:30 11,2 99,3 0 0,7 80 0,6 1006,7
6 Contra Coronel 05-05-2026 01:15 11,3 99,3 0,2 0,3 86 0,6 1006,9
5 Contra Coronel 05-05-2026 01:00 11,2 99,3 0,2 0 52 0,6 1006,9
4 Contra Coronel 05-05-2026 00:45 11,1 99,3 0 0 52 0,6 1006,8
3 Contra Coronel 05-05-2026 00:30 11,2 99,3 0 0 56 0,6 1007
2 Contra Coronel 05-05-2026 00:15 11,1 99,3 0 0 25 0,6 1007
1 Contra Coronel 05-05-2026 00:00 11,1 99,2 0,2 0 25 0,6 1007,1